Weather History for KGEY - January, 2012

Change the Weather History Date:

Saturday, January 14, 2012

  Actual Average Record
Temperature  
Mean Temperature 34 °F 17 °F  
Max Temperature 48 °F 29 °F 54 °F (2006)
Min Temperature 19 °F 5 °F -21 °F (2007)
Degree Days  
Heating Degree Days 32 48  
Month to date heating degree days 683  
Since 1 July heating degree days 4006  
Cooling Degree Days 0 0  
Month to date cooling degree days 0  
Year to date cooling degree days 0  
Moisture  
Dew Point 14 °F    
Average Humidity 53    
Maximum Humidity 74    
Minimum Humidity 28    
Precipitation  
Precipitation 0.00 in 0.01 in T in (2005)
Month to date precipitation 0.12  
Year to date precipitation 0.12  
Sea Level Pressure  
Sea Level Pressure 30.01 in    
Wind  
Wind Speed 4 mph (SSE)    
Max Wind Speed 8 mph    
Max Gust Speed -    
Visibility 10 miles    
Events      
T = Trace of Precipitation, MM = Missing Value Source: NWS Daily Summary

Daily Weather History Graph

Daily Weather History Graph

Search for Another Location

Airport or City:

Trip Planner

Search our weather history database for the weather conditions in past years. The results will help you decide how hot, cold, wet, or windy it might be!

Date:

Astronomy

Jan. 14, 2012 Rise Set
Actual Time 7:46 AM MST 4:56 PM MST
Civil Twilight 7:13 AM MST 5:29 PM MST
Nautical Twilight 6:37 AM MST 6:05 PM MST
Astronomical Twilight 6:02 AM MST 6:40 PM MST
Moon 11:39 PM MST (1/14) 10:16 AM MST (1/14)
Length of Visible Light 10h 15m
Length of Day
9h 10m
Waning Gibbous, 68% of the Moon is Illuminated
Jan 14
Waning Gibbous
Jan 16
Last Quarter
Jan 23
New
Jan 30
First Quarter
Feb 7
Full

Hourly Weather History & Observations

Time (MST) Temp. Windchill Dew Point Humidity Pressure Visibility Wind Dir Wind Speed Gust Speed Precip Events Conditions
12:53 AM 23.0 °F 15.8 °F 10.0 °F 58% 30.19 in 10.0 mi SSW 5.8 mph - N/A   Scattered Clouds
1:53 AM 19.9 °F 12.1 °F 10.9 °F 68% 30.19 in 10.0 mi North 5.8 mph - N/A   Scattered Clouds
2:53 AM 21.0 °F - 10.9 °F 65% 30.19 in 10.0 mi Calm Calm - N/A   Mostly Cloudy
3:53 AM 19.9 °F 14.9 °F 10.9 °F 68% 30.18 in 10.0 mi NNW 3.5 mph - N/A   Mostly Cloudy
4:53 AM 19.9 °F 14.9 °F 12.9 °F 74% 30.17 in 10.0 mi SSE 3.5 mph - N/A   Mostly Cloudy
5:53 AM 21.0 °F - 12.0 °F 68% 30.17 in 10.0 mi Calm Calm - N/A   Clear
6:53 AM 21.0 °F - 12.0 °F 68% 30.17 in 10.0 mi Calm Calm - N/A   Clear
7:53 AM 21.9 °F 17.2 °F 12.9 °F 68% 30.17 in 10.0 mi SE 3.5 mph - N/A   Clear
8:53 AM 21.9 °F - 12.9 °F 68% 30.17 in 10.0 mi Calm Calm - N/A   Clear
9:53 AM 24.1 °F - 14.0 °F 65% 30.16 in 10.0 mi Calm Calm - N/A   Partly Cloudy
10:53 AM 28.9 °F 23.9 °F 14.0 °F 54% 30.11 in 10.0 mi ESE 4.6 mph - N/A   Clear
11:53 AM 33.1 °F 30.0 °F 15.1 °F 48% 30.05 in 10.0 mi ESE 3.5 mph - N/A   Clear
12:53 PM 37.0 °F 34.5 °F 14.0 °F 39% 29.98 in 10.0 mi SSW 3.5 mph - N/A   Clear
1:53 PM 39.0 °F 35.7 °F 15.1 °F 38% 29.93 in 10.0 mi NNW 4.6 mph - N/A   Clear
2:53 PM 44.1 °F 42.5 °F 16.0 °F 32% 29.87 in 10.0 mi Variable 3.5 mph - N/A   Clear
3:53 PM 48.0 °F - 16.0 °F 28% 29.85 in 10.0 mi ESE 5.8 mph - N/A   Clear
4:53 PM 45.0 °F 40.6 °F 17.1 °F 33% 29.84 in 10.0 mi SSE 8.1 mph - N/A   Clear
5:53 PM 42.1 °F 39.2 °F 16.0 °F 35% 29.85 in 10.0 mi North 4.6 mph - N/A   Clear
6:53 PM 39.0 °F 34.8 °F 17.1 °F 41% 29.88 in 10.0 mi West 5.8 mph - N/A   Clear
7:53 PM 39.0 °F 35.7 °F 17.1 °F 41% 29.85 in 10.0 mi Variable 4.6 mph - N/A   Clear
8:53 PM 35.1 °F 28.6 °F 17.1 °F 48% 29.86 in 10.0 mi South 8.1 mph - N/A   Clear
9:53 PM 34.0 °F 29.8 °F 17.1 °F 50% 29.85 in 10.0 mi South 4.6 mph - N/A   Clear
10:53 PM 30.9 °F - 16.0 °F 54% 29.84 in 10.0 mi Calm Calm - N/A   Clear
11:53 PM 27.0 °F - 15.1 °F 61% 29.82 in 10.0 mi Calm Calm - N/A   Clear